Regional Weather Roundup
Issued by NWS Grand Forks, ND

Home | Current Version | Previous Version | Text Only | Print | Product List | Glossary Off
Versions: 1 2 3 4 5 6 7 8 9 10 11 12 13 14 15 16 17 18 19 20 21 22 23 24 25 26 27 28 29 30 31 32 33 34 35 36 37 38 39 40 41 42 43 44 45 46 47 48 49 50

000
ASUS43 KFGF 212331
RWRFGF
PRAIRIE TO PINES  WEATHER ROUNDUP
NATIONAL WEATHER SERVICE EASTERN NORTH DAKOTA/GRAND FORKS ND
600 PM CDT SAT APR 21 2018

 **SATELLITE DATA USED TO AUGMENT SKY COVER AT AUTOMATED STATIONS**
 *****  WEATHER ACROSS EASTERN NORTH DAKOTA  *****

CITY           SKY/WX    TMP DP  RH WIND       PRES   REMARKS
GRAND FORKS    FAIR      58  46  64 SW10      30.25F
GRAND FRKS AFB FAIR      58  46  62 S13       30.25F
GRAND FRKS NWS   N/A     58  45  61 S9        30.22F
DEVILS LAKE    FAIR      58  39  49 S20       30.20F
FARGO          FAIR      60  37  42 S12       30.26F
WAHPETON ARPT  FAIR      57  37  47 S13       30.28F
$$

 ***** WEATHER ACROSS CENTRAL AND WESTERN NORTH DAKOTA  *****

CITY           SKY/WX    TMP DP  RH WIND       PRES   REMARKS
BISMARCK       FAIR      62  35  36 S17G29    30.15F
MINOT          FAIR      64  37  36 S23G33    30.06F
JAMESTOWN      FAIR      57  38  48 S16G24    30.22S
MINOT AFB      FAIR      63  38  40 S28G35    30.05F
GARRISON         N/A     59  37  44 S18       30.09F
WILLISTON      FAIR      68  37  32 S18G25    29.96F
DICKINSON      FAIR      60  37  42 S29G37    30.05F
HETTINGER      FAIR      56  36  47 S14G22    30.12F
$$

 *****  OTHER AIRPORT OBSERVATIONS IN OUR AREA  *****

CITY           SKY/WX    TMP DP  RH WIND       PRES   REMARKS
WALHALLA       FAIR      63  41  45 S16G23    30.19F
GRAFTON AIRPOR FAIR      59  43  55 S12G22    30.25S
VALLEY CITY AR FAIR      57  41  54 SW14      30.25S
CANDO          FAIR      59  39  47 S20G26    30.19F
CAVALIER APRT    N/A     61  45  55 S17G24    30.21S
GWINNER          N/A     59  39  47 SW12      30.25S
SHEYENNE NWR     N/A     62  37  39 S7        29.95S
ROLLA          FAIR      57  43  58 S20G33    30.14F
 ***** THE ABOVE OBSERVATIONS ARE NON NWS ARE NOT QUALITY
       CONTROLLED AND MAY MIS-REPORT RAIN FOR SNOW...
$$

  *****  WEATHER ACROSS NORTHERN MINNESOTA  *****

CITY           SKY/WX    TMP DP  RH WIND       PRES   REMARKS
FLAG ISLAND    FAIR      52  28  40 SE6       30.24F
WARROAD        PTSUNNY   61  45  55 SW10G18   30.26S
ROSEAU         FAIR      59  46  63 SW12      30.26S
HALLOCK        FAIR      61  43  51 S18       30.24R
THF RVR FALLS  FAIR      58  41  53 SW12      30.28S
BAUDETTE       FAIR      60  30  32 S10       30.26S
WASKISH        FAIR      55  32  41 W5        30.28F
CROOKSTON      FAIR      59  43  55 SW8       30.27F
STEPHEN NDAWN    N/A     57  45  62 S13         N/A
GREENBUSH NDAW   N/A     57  45  62 SW12        N/A
$$
  *****  WEATHER ACROSS CENTRAL AND WEST MINNESOTA  *****

CITY           SKY/WX    TMP DP  RH WIND       PRES   REMARKS
FOSSTON        FAIR      61  32  33 S6        30.28F
BEMIDJI        FAIR      59  30  33 S9        30.28S
PARK RAPIDS    FAIR      58  30  34 CALM      30.28F
ELBOW LAKE     MOCLDY    56  37  48 SW12      30.31S
WADENA         FAIR      57  34  41 SW3       30.29S
DETROIT LAKES  FAIR      57  34  41 W5        30.29F
MOORHEAD       FAIR      59  39  47 S9        30.27F
FERGUS FALLS   PTSUNNY   55  39  54 S9        30.27S
MORRIS MN      FAIR      55  37  50 SW10      30.31S
STAPLES        FAIR      55  28  35 CALM      30.30F
$$
  *****  WEATHER ELSEWHERE ACROSS MINNESOTA  *****

CITY           SKY/WX    TMP DP  RH WIND       PRES   REMARKS
DULUTH         FAIR      56  19  23 VRB3      30.32S
INTRNTL FALLS  FAIR      61  27  27 SE7       30.26F
ELY            FAIR      57  16  19 W6        30.29S
CLOQUET        FAIR      57  10  15 SW3       30.32S
WHEATON        FAIR      57  36  44 S10       30.31S
BRAINERD       FAIR      57  28  33 SE6       30.31F
HIBBING        FAIR      57  21  24 SE6       30.29F
ALEXANDRIA     FAIR      58  32  37 S7        30.31S
SAINT CLOUD    FAIR      57  29  34 SE5       30.32S
MINNEAPOLIS    FAIR      58  15  18 VRB6      30.33S
$$

  *****  WEATHER ACROSS SOUTH DAKOTA  *****

CITY           SKY/WX    TMP DP  RH WIND       PRES   REMARKS
SIOUX FALLS    CLOUDY    51  34  52 E15       30.28F
BROOKINGS      CLOUDY    49  33  54 SE9       30.30F
WATERTOWN      PTSUNNY   52  35  52 S10       30.28F
HURON          CLOUDY    53  35  50 SE13      30.28F
SISSETON         N/A     58  38  47 SW7       30.27F
ABERDEEN       FAIR      58  34  40 S14       30.26F
MITCHELL       FAIR      47  37  68 E6        30.29S
PIERRE         FAIR      50  36  58 S17       30.24S
MOBRIDGE       FAIR      54  38  54 S22G30    30.19S
RAPID CITY     FAIR      50  37  61 S21G29    30.14S
$$

  *****  SOME WEATHER IN NEARBY STATES *****

CITY           SKY/WX    TMP DP  RH WIND       PRES   REMARKS
GLASGOW MT     FAIR      76  32  20 SW20G25   29.83F
GREAT FALLS MT FAIR      61  24  24 W28G47    29.97R
CHEYENNE WY    CLOUDY    41  34  76 S7        30.15R
SCOTTSBLUFF NE CLOUDY    45  39  79 SE10      30.17F
OMAHA NE       CLOUDY    55  33  43 NE16G22   30.23F
DES MOINES IA  CLOUDY    58  24  27 E6        30.26R
DAVENPORT IA   FAIR      56  25  30 E13       30.32F
CHICAGO IL     PTSUNNY   51  20  29 E9        30.35F
EAU CLAIRE WI  FAIR      59  30  33 W3        30.32S
LA CROSSE WI   CLOUDY    59  29  31 W5        30.34S
$$

  *****  SOME NATIONAL WEATHER *****

CITY           SKY/WX    TMP DP  RH WIND       PRES   REMARKS
LA GUARDIA NY  MOCLDY    60  21  22 NW13      30.26R
RALEIGH NC     FAIR      66  36  32 SE6       30.33S
ATLANTA GA     PTSUNNY   69  43  38 E10       30.24S
NEW ORLEANS LA PTSUNNY   75  66  73 SE15      30.04F
OKLAHOMA CITY  DRIZZLE   48  47  96 NE12      30.03S FOG
ALBUQUERQUE NM FAIR      64  29  26 S15G22    30.07F
SALT LAKE CITY FAIR      69  22  16 NW9       30.15F
LOS ANGELES CA FAIR      67  50  54 W17       29.98F
BOISE ID       FAIR      69  34  27 N13G20    30.12F
SEATTLE WA     CLOUDY    53  37  54 NE7       30.41S
$$

*** WEATHER ACROSS MANITOBA...SASKATCHEWAN AND ONTARIO ***
                ***ONTARIO***

CITY           SKY/WX    TMP DP  RH WIND       PRES   REMARKS
GERALDTON      SUNNY     59  12  15 CALM      30.28S
THUNDER BAY    SUNNY     50  30  46 NE9       30.32S
SIOUX LOOKOUT  MOSUNNY   57  25  28 W8        30.26S
TORONTO        MOSUNNY   55  19  24 NW14      30.37S
BIG TROUT LK   SUNNY     55  30  38 SW6       30.18S
PICKLE LAKE    MOSUNNY   57  23  26 SW8       30.24S
DRYDEN         SUNNY     59  27  29 SW6       30.26F
KENORA         MOSUNNY   57  27  30 S12       30.26F
$$
                *** MANITOBA***

CITY           SKY/WX    TMP DP  RH WIND       PRES   REMARKS
BRANDON        PTSUNNY   63  43  48 S26       30.07F
DAUPHIN        SUNNY     63  43  48 S13G29    30.02F
ISLAND LAKE    PTSUNNY   61  28  29 SW6       30.13S
PILOT MOUND      N/A     59  39  47 S26G35      N/A
THE PAS        CLOUDY    50  36  57 SE14      29.91F
THOMPSON       CLOUDY    59  27  29 S9        30.02R
WINNIPEG       PTSUNNY   63  41  45 S17G23    30.18S
LYNN LAKE      CLOUDY    55  34  44 E5        29.92F
CHURCHILL      MOSUNNY   41  32  70 N14       30.07R
GILLAM         PTSUNNY   61  30  31 SW12      30.04S
$$
                ***SASKATCHEWAN***

CITY           SKY/WX    TMP DP  RH WIND       PRES   REMARKS
ESTEVAN        PTSUNNY   64  39  39 S23G32    29.95F
KINDERSLEY     CLOUDY    57  30  35 SW30G39   29.66F
LLOYDMINSTER   LGT RAIN  45  41  87 NE5       29.61F
PRINCE ALBERT  CLOUDY    43  36  75 E9        29.76F
REGINA         PTSUNNY   66  41  39 S20G28    29.83F
YORKTON        PTSUNNY   52  43  71 SE13      29.92F
N. BATTLEFORD  PTSUNNY   54  41  62 SE9       29.67F
LA RONGE       CLOUDY    50  36  57 NE8       29.79F
SASKATOON      CLOUDY    61  37  41 W14       29.71F
SWIFT CURRENT  PTSUNNY   63  36  36 SW31G38   29.78F
$$
NOTE: THESE ARE AUTOMATED STATIONS WITH LIMITED QUALITY CONTROL
      "FAIR" INDICATES FEW OR NO CLOUDS BELOW 12,000 FEET WITH NO
      SIGNIFICANT WEATHER AND/OR OBSTRUCTIONS TO VISIBILITY.
      SKY/WX - SKY CONDITION AND SIGNIFICANT WEATHER.
      TMP - AIR TEMPERATURE.    DP   - DEWPOINT TEMPERATURE.
      RH  - RELATIVE HUMIDITY.  PRES - PRESSURE.
      HX  - HEAT INDEX.         WCI  - WIND CHILL INDEX.
$




USA.gov is the U.S. government's official web portal to all federal, state and local government web resources and services.